TimeCET,TemperatureF,Dew PointF,Humidity,Sea Level PressureIn,VisibilityMPH,Wind Direction,Wind SpeedMPH,Gust SpeedMPH,PrecipitationIn,Events,Conditions,WindDirDegrees,DateUTC
12:25 AM,39.2,37.4,93,30.21,6.2,Variable,1.2,-,N/A,,Partly Cloudy,0,2013-11-10 23:25:00
12:55 AM,37.4,35.6,93,30.24,6.2,SW,3.5,-,N/A,Rain,Light Rain Showers,220,2013-11-10 23:55:00
1:00 AM,38,37,93,30.25,16,SSW,2.2,,,Rain,Rain Showers,210,2013-11-11 00:00:00
1:25 AM,41.0,39.2,93,30.24,6.2,Variable,1.2,-,N/A,,Partly Cloudy,0,2013-11-11 00:25:00
1:55 AM,39.2,37.4,93,30.24,6.2,South,1.2,-,N/A,,Partly Cloudy,170,2013-11-11 00:55:00
2:25 AM,37.4,35.6,93,30.24,6.2,SSW,5.8,-,N/A,,Partly Cloudy,200,2013-11-11 01:25:00
2:55 AM,37.4,35.6,93,30.27,6.2,SSW,4.6,-,N/A,,Partly Cloudy,200,2013-11-11 01:55:00
3:25 AM,37.4,37.4,100,30.27,6.2,South,3.5,-,N/A,,Partly Cloudy,190,2013-11-11 02:25:00
3:55 AM,37.4,35.6,93,30.27,6.2,SSE,2.3,-,N/A,,Partly Cloudy,150,2013-11-11 02:55:00
4:00 AM,37,37,99,30.28,13,SSE,2.2,,,,Partly Cloudy,150,2013-11-11 03:00:00
4:25 AM,37.4,37.4,100,30.27,6.2,SSE,3.5,-,N/A,Fog,Shallow Fog,160,2013-11-11 03:25:00
4:55 AM,35.6,35.6,100,30.27,6.2,South,3.5,-,N/A,,Partly Cloudy,170,2013-11-11 03:55:00
5:25 AM,37.4,37.4,100,30.30,6.2,SSE,3.5,-,N/A,Fog,Shallow Fog,160,2013-11-11 04:25:00
5:55 AM,37.4,35.6,93,30.30,6.2,SSE,4.6,-,N/A,,Partly Cloudy,160,2013-11-11 04:55:00
6:25 AM,35.6,33.8,93,30.30,6.2,South,6.9,-,N/A,,Partly Cloudy,180,2013-11-11 05:25:00
6:55 AM,35.6,33.8,93,30.30,6.2,South,5.8,-,N/A,,Partly Cloudy,190,2013-11-11 05:55:00
7:00 AM,35,34,93,30.31,18,South,6.7,,,,Partly Cloudy,190,2013-11-11 06:00:00
7:25 AM,37.4,35.6,93,30.30,6.2,South,5.8,-,N/A,,Partly Cloudy,180,2013-11-11 06:25:00
7:55 AM,37.4,35.6,93,30.30,6.2,South,5.8,-,N/A,,Partly Cloudy,180,2013-11-11 06:55:00
8:25 AM,39.2,37.4,93,30.30,6.2,South,6.9,-,N/A,,Partly Cloudy,190,2013-11-11 07:25:00
8:55 AM,41.0,39.2,93,30.30,-9999.0,South,3.5,-,N/A,,Clear,180,2013-11-11 07:55:00
9:25 AM,42.8,41.0,93,30.33,-9999.0,South,5.8,-,N/A,,Clear,190,2013-11-11 08:25:00
9:55 AM,46.4,42.8,87,30.33,-9999.0,South,8.1,-,N/A,,Clear,180,2013-11-11 08:55:00
10:00 AM,46,42,81,30.35,18,South,6.7,,,,Mostly Cloudy,180,2013-11-11 09:00:00
10:25 AM,46.4,42.8,87,30.33,-9999.0,South,9.2,-,N/A,,Clear,170,2013-11-11 09:25:00
10:55 AM,46.4,42.8,87,30.33,-9999.0,South,10.4,-,N/A,,Clear,170,2013-11-11 09:55:00
11:25 AM,48.2,42.8,82,30.33,-9999.0,South,12.7,-,N/A,,Clear,190,2013-11-11 10:25:00
11:55 AM,48.2,42.8,82,30.33,-9999.0,SSW,12.7,-,N/A,,Clear,200,2013-11-11 10:55:00
12:25 PM,48.2,42.8,82,30.33,-9999.0,South,12.7,-,N/A,,Clear,190,2013-11-11 11:25:00
12:55 PM,48.2,42.8,82,30.33,-9999.0,South,12.7,-,N/A,,Clear,190,2013-11-11 11:55:00
1:00 PM,48,42,72,30.34,16,South,11.2,,,,Partly Cloudy,180,2013-11-11 12:00:00
1:25 PM,48.2,42.8,82,30.33,-9999.0,South,15.0,-,N/A,,Clear,180,2013-11-11 12:25:00
1:55 PM,48.2,42.8,82,30.30,-9999.0,South,15.0,-,N/A,,Clear,190,2013-11-11 12:55:00
2:25 PM,48.2,41.0,76,30.30,-9999.0,South,16.1,-,N/A,,Clear,190,2013-11-11 13:25:00
2:55 PM,48.2,41.0,76,30.30,-9999.0,South,16.1,-,N/A,,Clear,180,2013-11-11 13:55:00
3:25 PM,48.2,41.0,76,30.30,-9999.0,South,13.8,-,N/A,,Clear,180,2013-11-11 14:25:00
3:55 PM,48.2,41.0,76,30.30,-9999.0,South,11.5,-,N/A,,Clear,180,2013-11-11 14:55:00
4:00 PM,48,42,72,30.31,19,South,11.2,,,,Overcast,180,2013-11-11 15:00:00
4:25 PM,48.2,41.0,76,30.30,6.2,South,11.5,-,N/A,Rain,Light Rain,170,2013-11-11 15:25:00
4:55 PM,46.4,42.8,87,30.30,6.2,South,12.7,-,N/A,Rain,Light Rain,170,2013-11-11 15:55:00
5:25 PM,48.2,41.0,76,30.30,-9999.0,South,13.8,-,N/A,,Clear,170,2013-11-11 16:25:00
5:55 PM,46.4,41.0,81,30.27,-9999.0,South,15.0,-,N/A,,Clear,170,2013-11-11 16:55:00
6:25 PM,48.2,41.0,76,30.27,-9999.0,South,17.3,-,N/A,,Clear,170,2013-11-11 17:25:00
6:55 PM,48.2,41.0,76,30.27,6.2,South,17.3,-,N/A,,Mostly Cloudy,170,2013-11-11 17:55:00
7:00 PM,47,41,71,30.30,25,South,15.7,,,,Partly Cloudy,180,2013-11-11 18:00:00
7:25 PM,46.4,41.0,81,30.27,6.2,South,16.1,-,N/A,,Scattered Clouds,180,2013-11-11 18:25:00
7:55 PM,46.4,41.0,81,30.27,6.2,South,13.8,-,N/A,,Partly Cloudy,180,2013-11-11 18:55:00
8:25 PM,46.4,41.0,81,30.27,6.2,South,15.0,-,N/A,Rain,Light Rain,180,2013-11-11 19:25:00
8:55 PM,46.4,39.2,76,30.27,6.2,South,17.3,-,N/A,,Scattered Clouds,180,2013-11-11 19:55:00
9:25 PM,46.4,37.4,71,30.27,6.2,South,17.3,-,N/A,,Mostly Cloudy,180,2013-11-11 20:25:00
9:55 PM,46.4,37.4,71,30.27,6.2,South,16.1,-,N/A,,Mostly Cloudy,180,2013-11-11 20:55:00
10:00 PM,47,38,60,30.29,28,South,15.7,,,,Partly Cloudy,180,2013-11-11 21:00:00
10:25 PM,46.4,37.4,71,30.27,6.2,South,15.0,-,N/A,,Overcast,180,2013-11-11 21:25:00
10:55 PM,46.4,37.4,71,30.27,6.2,South,16.1,-,N/A,,Overcast,180,2013-11-11 21:55:00
11:25 PM,46.4,37.4,71,30.27,6.2,South,16.1,-,N/A,,Light Drizzle,190,2013-11-11 22:25:00
11:55 PM,46.4,37.4,71,30.27,6.2,SSW,16.1,-,N/A,,Light Drizzle,200,2013-11-11 22:55:00